Time,TemperatureF,DewpointF,PressureIn,WindDirection,WindDirectionDegrees,WindSpeedMPH,WindSpeedGustMPH,Humidity,HourlyPrecipIn,Conditions,Clouds,dailyrainin,SoftwareType,DateUTC
2013-01-10 00:03:00,50.6,48.1,29.91,West,279,0.0,0.0,91,0.00,,,0.00,Wunderground v.1.15,2013-01-10 08:03:00,
2013-01-10 00:08:00,50.6,48.1,29.91,West,279,0.0,0.0,91,0.00,,,0.00,Wunderground v.1.15,2013-01-10 08:08:00,
2013-01-10 00:13:00,50.7,48.2,29.91,West,279,0.0,0.0,91,0.00,,,0.00,Wunderground v.1.15,2013-01-10 08:13:00,
2013-01-10 00:18:00,50.7,48.2,29.91,West,279,0.0,0.0,91,0.00,,,0.00,Wunderground v.1.15,2013-01-10 08:18:00,
2013-01-10 00:23:00,50.6,48.1,29.91,West,279,0.0,0.0,91,0.00,,,0.00,Wunderground v.1.15,2013-01-10 08:23:00,
2013-01-10 00:28:00,50.6,48.1,29.91,West,279,0.0,0.0,91,0.00,,,0.00,Wunderground v.1.15,2013-01-10 08:28:00,
2013-01-10 00:33:00,50.6,48.1,29.91,West,279,0.0,0.0,91,0.00,,,0.00,Wunderground v.1.15,2013-01-10 08:33:00,
2013-01-10 00:38:00,50.6,48.1,29.91,West,279,0.0,0.0,91,0.00,,,0.00,Wunderground v.1.15,2013-01-10 08:38:00,
2013-01-10 00:43:00,50.6,48.1,29.91,West,279,0.0,0.0,91,0.00,,,0.00,Wunderground v.1.15,2013-01-10 08:43:00,
2013-01-10 00:48:00,50.7,48.2,29.90,West,279,0.0,0.0,91,0.00,,,0.00,Wunderground v.1.15,2013-01-10 08:48:00,
2013-01-10 00:54:00,50.7,48.2,29.90,West,279,0.0,0.0,91,0.00,,,0.00,Wunderground v.1.15,2013-01-10 08:54:00,
2013-01-10 00:59:00,50.7,48.2,29.90,West,279,0.0,0.0,91,0.00,,,0.00,Wunderground v.1.15,2013-01-10 08:59:00,
2013-01-10 01:04:00,50.8,48.3,29.90,West,279,0.0,0.0,91,0.00,,,0.00,Wunderground v.1.15,2013-01-10 09:04:00,
2013-01-10 01:09:00,50.8,48.3,29.91,West,279,0.0,0.0,91,0.00,,,0.00,Wunderground v.1.15,2013-01-10 09:09:00,
2013-01-10 01:14:00,50.8,48.3,29.91,West,279,0.0,0.0,91,0.00,,,0.00,Wunderground v.1.15,2013-01-10 09:14:00,
2013-01-10 01:19:00,50.7,48.2,29.91,West,279,0.0,0.0,91,0.00,,,0.00,Wunderground v.1.15,2013-01-10 09:19:00,
2013-01-10 01:24:00,50.7,48.2,29.90,West,279,0.0,0.0,91,0.00,,,0.00,Wunderground v.1.15,2013-01-10 09:24:00,
2013-01-10 01:29:00,50.7,48.2,29.90,West,279,0.0,0.0,91,0.00,,,0.00,Wunderground v.1.15,2013-01-10 09:29:00,
2013-01-10 01:35:00,50.7,48.2,29.91,West,279,0.0,0.0,91,0.00,,,0.00,Wunderground v.1.15,2013-01-10 09:35:00,
2013-01-10 01:40:00,50.7,48.2,29.90,West,279,0.0,0.0,91,0.00,,,0.00,Wunderground v.1.15,2013-01-10 09:40:00,
2013-01-10 01:45:00,50.7,48.2,29.90,West,279,0.0,0.0,91,0.00,,,0.00,Wunderground v.1.15,2013-01-10 09:45:00,
2013-01-10 01:51:00,50.7,48.2,29.90,West,279,0.0,0.0,91,0.00,,,0.00,Wunderground v.1.15,2013-01-10 09:51:00,
2013-01-10 01:56:00,50.7,48.2,29.90,West,279,0.0,0.0,91,0.00,,,0.00,Wunderground v.1.15,2013-01-10 09:56:00,
2013-01-10 02:01:00,50.7,48.2,29.90,West,279,0.0,0.0,91,0.00,,,0.00,Wunderground v.1.15,2013-01-10 10:01:00,
2013-01-10 02:06:00,50.7,48.2,29.90,West,279,0.0,0.0,91,0.00,,,0.00,Wunderground v.1.15,2013-01-10 10:06:00,
2013-01-10 02:11:00,50.7,48.2,29.90,West,279,0.0,0.0,91,0.00,,,0.00,Wunderground v.1.15,2013-01-10 10:11:00,
2013-01-10 02:17:00,50.7,48.2,29.90,West,279,0.0,0.0,91,0.00,,,0.00,Wunderground v.1.15,2013-01-10 10:17:00,
2013-01-10 02:23:00,50.7,48.2,29.90,West,279,0.0,0.0,91,0.00,,,0.00,Wunderground v.1.15,2013-01-10 10:23:00,
2013-01-10 02:28:00,50.7,48.2,29.89,West,279,0.0,0.0,91,0.00,,,0.00,Wunderground v.1.15,2013-01-10 10:28:00,
2013-01-10 02:33:00,50.6,48.1,29.89,West,279,0.0,0.0,91,0.00,,,0.00,Wunderground v.1.15,2013-01-10 10:33:00,
2013-01-10 02:38:00,50.6,48.1,29.89,West,279,0.0,0.0,91,0.00,,,0.00,Wunderground v.1.15,2013-01-10 10:38:00,
2013-01-10 02:43:00,50.6,48.1,29.88,West,279,0.0,0.0,91,0.00,,,0.00,Wunderground v.1.15,2013-01-10 10:43:00,
2013-01-10 02:48:00,50.6,48.1,29.88,West,279,0.0,0.0,91,0.00,,,0.00,Wunderground v.1.15,2013-01-10 10:48:00,
2013-01-10 02:53:00,50.6,48.1,29.88,West,279,0.0,0.0,91,0.00,,,0.00,Wunderground v.1.15,2013-01-10 10:53:00,
2013-01-10 02:59:00,50.5,48.0,29.88,West,279,0.0,0.0,91,0.00,,,0.00,Wunderground v.1.15,2013-01-10 10:59:00,
2013-01-10 03:04:00,50.5,48.0,29.88,West,279,0.0,0.0,91,0.00,,,0.00,Wunderground v.1.15,2013-01-10 11:04:00,
2013-01-10 03:09:00,50.5,48.0,29.88,West,279,0.0,0.0,91,0.00,,,0.00,Wunderground v.1.15,2013-01-10 11:09:00,
2013-01-10 03:14:00,50.5,48.0,29.88,West,279,0.0,0.0,91,0.00,,,0.00,Wunderground v.1.15,2013-01-10 11:14:00,
2013-01-10 03:20:00,50.5,48.0,29.87,West,279,0.0,0.0,91,0.00,,,0.00,Wunderground v.1.15,2013-01-10 11:20:00,
2013-01-10 03:25:00,50.4,47.9,29.87,West,279,0.0,0.0,91,0.00,,,0.00,Wunderground v.1.15,2013-01-10 11:25:00,
2013-01-10 03:30:00,50.4,47.9,29.87,West,279,0.0,0.0,91,0.00,,,0.00,Wunderground v.1.15,2013-01-10 11:30:00,
2013-01-10 03:36:00,50.4,47.9,29.86,West,279,0.0,0.0,91,0.00,,,0.00,Wunderground v.1.15,2013-01-10 11:36:00,
2013-01-10 03:42:00,50.4,47.9,29.86,West,279,0.0,0.0,91,0.00,,,0.00,Wunderground v.1.15,2013-01-10 11:42:00,
2013-01-10 03:47:00,50.4,48.2,29.86,West,279,0.0,0.0,92,0.00,,,0.00,Wunderground v.1.15,2013-01-10 11:47:00,
2013-01-10 03:52:00,50.3,48.1,29.86,West,279,0.0,0.0,92,0.00,,,0.00,Wunderground v.1.15,2013-01-10 11:52:00,
2013-01-10 03:57:00,50.3,48.1,29.86,West,279,0.0,0.0,92,0.00,,,0.00,Wunderground v.1.15,2013-01-10 11:57:00,
2013-01-10 04:02:00,50.3,48.1,29.86,West,279,0.0,0.0,92,0.00,,,0.00,Wunderground v.1.15,2013-01-10 12:02:00,
2013-01-10 04:07:00,50.3,48.1,29.86,West,279,0.0,0.0,92,0.00,,,0.00,Wunderground v.1.15,2013-01-10 12:07:00,
2013-01-10 04:12:00,50.3,48.1,29.85,West,279,0.0,0.0,92,0.00,,,0.00,Wunderground v.1.15,2013-01-10 12:12:00,
2013-01-10 04:18:00,50.2,48.0,29.85,West,279,0.0,0.0,92,0.00,,,0.00,Wunderground v.1.15,2013-01-10 12:18:00,
2013-01-10 04:24:00,50.2,48.0,29.85,West,279,0.0,0.0,92,0.00,,,0.00,Wunderground v.1.15,2013-01-10 12:24:00,
2013-01-10 04:29:00,50.1,47.9,29.85,West,279,0.0,0.0,92,0.00,,,0.00,Wunderground v.1.15,2013-01-10 12:29:00,
2013-01-10 04:34:00,50.0,47.8,29.85,West,279,0.0,0.0,92,0.00,,,0.00,Wunderground v.1.15,2013-01-10 12:34:00,
2013-01-10 04:39:00,50.0,47.8,29.84,West,279,0.0,0.0,92,0.00,,,0.00,Wunderground v.1.15,2013-01-10 12:39:00,
2013-01-10 04:44:00,50.0,47.8,29.84,West,279,0.0,0.0,92,0.00,,,0.00,Wunderground v.1.15,2013-01-10 12:44:00,
2013-01-10 04:49:00,50.0,47.8,29.84,West,279,0.0,0.0,92,0.00,,,0.00,Wunderground v.1.15,2013-01-10 12:49:00,
2013-01-10 04:54:00,50.0,47.8,29.84,West,279,0.0,0.0,92,0.00,,,0.00,Wunderground v.1.15,2013-01-10 12:54:00,
2013-01-10 04:59:00,50.0,47.8,29.83,West,279,0.0,0.0,92,0.00,,,0.00,Wunderground v.1.15,2013-01-10 12:59:00,
2013-01-10 05:05:00,50.0,48.1,29.83,West,279,0.0,0.0,93,0.00,,,0.00,Wunderground v.1.15,2013-01-10 13:05:00,
2013-01-10 05:10:00,50.0,48.1,29.83,West,279,0.0,0.0,93,0.00,,,0.00,Wunderground v.1.15,2013-01-10 13:10:00,
2013-01-10 05:16:00,50.0,48.1,29.84,West,279,0.0,0.0,93,0.00,,,0.00,Wunderground v.1.15,2013-01-10 13:16:00,
2013-01-10 05:21:00,50.0,48.1,29.84,West,279,0.0,0.0,93,0.00,,,0.00,Wunderground v.1.15,2013-01-10 13:21:00,
2013-01-10 05:26:00,49.9,48.0,29.84,West,279,0.0,0.0,93,0.00,,,0.00,Wunderground v.1.15,2013-01-10 13:26:00,
2013-01-10 05:31:00,49.8,47.9,29.84,West,279,0.0,0.0,93,0.00,,,0.00,Wunderground v.1.15,2013-01-10 13:31:00,
2013-01-10 05:36:00,49.5,46.7,29.84,West,277,0.0,4.0,90,0.00,,,0.00,Wunderground v.1.15,2013-01-10 13:36:00,
2013-01-10 05:41:00,49.2,45.8,29.84,West,273,0.0,0.0,88,0.00,,,0.00,Wunderground v.1.15,2013-01-10 13:41:00,
2013-01-10 05:47:00,48.9,45.2,29.84,West,273,0.0,0.0,87,0.00,,,0.00,Wunderground v.1.15,2013-01-10 13:47:00,
2013-01-10 05:52:00,48.7,45.3,29.84,West,272,0.0,0.0,88,0.00,,,0.00,Wunderground v.1.15,2013-01-10 13:52:00,
2013-01-10 05:57:00,48.5,45.4,29.84,West,273,0.0,0.0,89,0.00,,,0.00,Wunderground v.1.15,2013-01-10 13:57:00,
2013-01-10 06:02:00,48.3,45.2,29.85,West,272,0.0,0.0,89,0.00,,,0.00,Wunderground v.1.15,2013-01-10 14:02:00,
2013-01-10 06:07:00,48.1,45.0,29.84,West,272,0.0,0.0,89,0.00,,,0.00,Wunderground v.1.15,2013-01-10 14:07:00,
2013-01-10 06:12:00,47.8,44.7,29.84,West,273,0.0,0.0,89,0.00,,,0.00,Wunderground v.1.15,2013-01-10 14:12:00,
2013-01-10 06:17:00,47.6,44.5,29.84,West,273,0.0,0.0,89,0.00,,,0.00,Wunderground v.1.15,2013-01-10 14:17:00,
2013-01-10 06:22:00,47.5,44.1,29.85,West,269,0.0,5.0,88,0.00,,,0.00,Wunderground v.1.15,2013-01-10 14:22:00,
2013-01-10 06:28:00,47.5,43.8,29.85,West,263,0.0,5.0,87,0.00,,,0.00,Wunderground v.1.15,2013-01-10 14:28:00,
2013-01-10 06:33:00,47.4,43.1,29.85,SW,230,0.0,3.0,85,0.00,,,0.00,Wunderground v.1.15,2013-01-10 14:33:00,
2013-01-10 06:38:00,47.4,43.1,29.85,SW,236,0.0,3.0,85,0.00,,,0.00,Wunderground v.1.15,2013-01-10 14:38:00,
2013-01-10 06:43:00,47.3,43.0,29.85,SW,236,0.0,0.0,85,0.00,,,0.00,Wunderground v.1.15,2013-01-10 14:43:00,
2013-01-10 06:48:00,47.2,43.2,29.85,SW,236,0.0,0.0,86,0.00,,,0.00,Wunderground v.1.15,2013-01-10 14:48:00,
2013-01-10 06:53:00,47.1,43.1,29.86,SW,236,0.0,0.0,86,0.00,,,0.00,Wunderground v.1.15,2013-01-10 14:53:00,
2013-01-10 06:58:00,47.1,43.1,29.85,SW,236,0.0,0.0,86,0.00,,,0.00,Wunderground v.1.15,2013-01-10 14:58:00,
2013-01-10 07:03:00,47.1,43.1,29.85,SW,236,0.0,0.0,86,0.00,,,0.00,Wunderground v.1.15,2013-01-10 15:03:00,
2013-01-10 07:08:00,47.1,43.1,29.85,SW,236,0.0,0.0,86,0.00,,,0.00,Wunderground v.1.15,2013-01-10 15:08:00,
2013-01-10 07:13:00,47.2,43.5,29.86,ENE,71,0.0,0.0,87,0.00,,,0.00,Wunderground v.1.15,2013-01-10 15:13:00,
2013-01-10 07:18:00,47.2,43.5,29.86,ENE,71,0.0,0.0,87,0.00,,,0.00,Wunderground v.1.15,2013-01-10 15:18:00,
2013-01-10 07:23:00,47.2,43.8,29.86,ENE,71,0.0,0.0,88,0.00,,,0.00,Wunderground v.1.15,2013-01-10 15:23:00,
2013-01-10 07:28:00,47.2,43.8,29.86,ENE,71,0.0,0.0,88,0.00,,,0.00,Wunderground v.1.15,2013-01-10 15:28:00,
2013-01-10 07:34:00,47.2,43.8,29.86,ENE,71,0.0,0.0,88,0.00,,,0.00,Wunderground v.1.15,2013-01-10 15:34:00,
2013-01-10 07:40:00,47.3,43.9,29.87,ENE,71,0.0,0.0,88,0.00,,,0.00,Wunderground v.1.15,2013-01-10 15:40:00,
2013-01-10 07:45:00,47.4,44.0,29.87,ENE,71,0.0,0.0,88,0.00,,,0.00,Wunderground v.1.15,2013-01-10 15:45:00,
2013-01-10 07:50:00,47.5,44.1,29.87,ENE,71,0.0,0.0,88,0.00,,,0.00,Wunderground v.1.15,2013-01-10 15:50:00,
2013-01-10 07:55:00,47.6,43.9,29.87,ENE,71,0.0,0.0,87,0.00,,,0.00,Wunderground v.1.15,2013-01-10 15:55:00,
2013-01-10 08:00:00,47.7,44.0,29.88,ENE,71,0.0,0.0,87,0.00,,,0.00,Wunderground v.1.15,2013-01-10 16:00:00,
2013-01-10 08:06:00,47.9,44.5,29.88,ENE,71,0.0,0.0,88,0.00,,,0.00,Wunderground v.1.15,2013-01-10 16:06:00,
2013-01-10 08:11:00,48.0,44.0,29.87,ENE,71,0.0,0.0,86,0.00,,,0.00,Wunderground v.1.15,2013-01-10 16:11:00,
2013-01-10 08:16:00,48.1,44.1,29.87,ENE,71,0.0,0.0,86,0.00,,,0.00,Wunderground v.1.15,2013-01-10 16:16:00,
2013-01-10 08:21:00,48.2,44.2,29.88,ENE,71,0.0,0.0,86,0.00,,,0.00,Wunderground v.1.15,2013-01-10 16:21:00,
2013-01-10 08:26:00,48.1,44.1,29.88,ENE,71,0.0,0.0,86,0.00,,,0.00,Wunderground v.1.15,2013-01-10 16:26:00,
2013-01-10 08:31:00,48.2,45.4,29.88,ENE,71,0.0,0.0,90,0.00,,,0.00,Wunderground v.1.15,2013-01-10 16:31:00,
2013-01-10 08:36:00,48.6,44.6,29.88,ENE,71,0.0,0.0,86,0.00,,,0.00,Wunderground v.1.15,2013-01-10 16:36:00,
2013-01-10 08:41:00,49.7,45.4,29.88,ENE,71,0.0,0.0,85,0.00,,,0.00,Wunderground v.1.15,2013-01-10 16:41:00,
2013-01-10 08:46:00,50.6,45.0,29.88,ENE,77,0.0,0.0,81,0.00,,,0.00,Wunderground v.1.15,2013-01-10 16:46:00,
2013-01-10 08:51:00,51.1,45.8,29.88,ENE,76,0.0,0.0,82,0.00,,,0.00,Wunderground v.1.15,2013-01-10 16:51:00,
2013-01-10 08:56:00,51.8,45.5,29.88,ENE,77,0.0,0.0,79,0.00,,,0.00,Wunderground v.1.15,2013-01-10 16:56:00,
2013-01-10 09:01:00,52.4,41.8,29.88,ENE,77,0.0,0.0,67,0.00,,,0.00,Wunderground v.1.15,2013-01-10 17:01:00,
2013-01-10 09:06:00,53.1,40.0,29.88,East,86,0.0,2.0,61,0.00,,,0.00,Wunderground v.1.15,2013-01-10 17:06:00,
2013-01-10 09:12:00,53.9,39.0,29.88,SSE,153,0.0,0.0,57,0.00,,,0.00,Wunderground v.1.15,2013-01-10 17:12:00,
2013-01-10 09:17:00,54.4,38.1,29.88,ESE,103,0.0,1.0,54,0.00,,,0.00,Wunderground v.1.15,2013-01-10 17:17:00,
2013-01-10 09:23:00,54.7,36.4,29.89,ESE,106,0.0,0.0,50,0.00,,,0.00,Wunderground v.1.15,2013-01-10 17:23:00,
2013-01-10 09:28:00,54.5,36.7,29.88,ESE,107,0.0,0.0,51,0.00,,,0.00,Wunderground v.1.15,2013-01-10 17:28:00,
2013-01-10 09:33:00,54.4,35.1,29.89,SSW,213,0.0,1.0,48,0.00,,,0.00,Wunderground v.1.15,2013-01-10 17:33:00,
2013-01-10 09:38:00,54.4,34.6,29.88,SSW,213,0.0,1.0,47,0.00,,,0.00,Wunderground v.1.15,2013-01-10 17:38:00,
2013-01-10 09:43:00,54.9,36.1,29.88,SSW,213,0.0,0.0,49,0.00,,,0.00,Wunderground v.1.15,2013-01-10 17:43:00,
2013-01-10 09:48:00,55.0,35.1,29.88,SW,218,0.0,3.0,47,0.00,,,0.00,Wunderground v.1.15,2013-01-10 17:48:00,
2013-01-10 09:54:00,55.0,38.6,29.89,WSW,244,1.0,2.0,54,0.00,,,0.00,Wunderground v.1.15,2013-01-10 17:54:00,
2013-01-10 09:59:00,55.4,40.0,29.88,WSW,241,1.0,4.0,56,0.00,,,0.00,Wunderground v.1.15,2013-01-10 17:59:00,
2013-01-10 10:04:00,55.4,37.6,29.88,SW,236,1.0,4.0,51,0.00,,,0.00,Wunderground v.1.15,2013-01-10 18:04:00,
2013-01-10 10:09:00,55.6,38.2,29.89,SW,236,1.0,1.0,52,0.00,,,0.00,Wunderground v.1.15,2013-01-10 18:09:00,
2013-01-10 10:14:00,56.0,38.6,29.89,West,265,1.0,3.0,52,0.00,,,0.00,Wunderground v.1.15,2013-01-10 18:14:00,
2013-01-10 10:19:00,56.2,40.2,29.89,SW,233,2.0,3.0,55,0.00,,,0.00,Wunderground v.1.15,2013-01-10 18:19:00,
2013-01-10 10:24:00,56.2,39.8,29.89,WSW,252,3.0,6.0,54,0.00,,,0.00,Wunderground v.1.15,2013-01-10 18:24:00,
2013-01-10 10:29:00,55.8,39.4,29.88,WSW,253,2.0,2.0,54,0.00,,,0.00,Wunderground v.1.15,2013-01-10 18:29:00,
2013-01-10 10:35:00,55.9,39.5,29.88,SSW,198,1.0,2.0,54,0.00,,,0.00,Wunderground v.1.15,2013-01-10 18:35:00,
2013-01-10 10:40:00,56.2,37.8,29.88,West,263,1.0,3.0,50,0.00,,,0.00,Wunderground v.1.15,2013-01-10 18:40:00,
2013-01-10 10:45:00,56.1,37.7,29.88,WNW,283,1.0,3.0,50,0.00,,,0.00,Wunderground v.1.15,2013-01-10 18:45:00,
2013-01-10 10:50:00,55.9,37.0,29.88,WNW,302,1.0,1.0,49,0.00,,,0.00,Wunderground v.1.15,2013-01-10 18:50:00,
2013-01-10 10:55:00,56.0,36.6,29.88,WNW,302,1.0,1.0,48,0.00,,,0.00,Wunderground v.1.15,2013-01-10 18:55:00,
2013-01-10 11:00:00,56.1,37.2,29.88,WNW,287,0.0,0.0,49,0.00,,,0.00,Wunderground v.1.15,2013-01-10 19:00:00,
2013-01-10 11:05:00,55.9,37.0,29.88,West,275,1.0,5.0,49,0.00,,,0.00,Wunderground v.1.15,2013-01-10 19:05:00,
2013-01-10 11:10:00,55.7,36.3,29.87,West,267,1.0,1.0,48,0.00,,,0.00,Wunderground v.1.15,2013-01-10 19:10:00,
2013-01-10 11:15:00,55.7,36.8,29.87,West,265,1.0,2.0,49,0.00,,,0.00,Wunderground v.1.15,2013-01-10 19:15:00,
2013-01-10 11:20:00,56.3,37.9,29.87,West,264,1.0,1.0,50,0.00,,,0.00,Wunderground v.1.15,2013-01-10 19:20:00,
2013-01-10 11:25:00,56.3,37.4,29.87,WSW,240,1.0,2.0,49,0.00,,,0.00,Wunderground v.1.15,2013-01-10 19:25:00,
2013-01-10 11:30:00,56.0,36.6,29.86,SW,236,1.0,4.0,48,0.00,,,0.00,Wunderground v.1.15,2013-01-10 19:30:00,
2013-01-10 11:36:00,56.6,36.6,29.86,SW,236,1.0,4.0,47,0.00,,,0.00,Wunderground v.1.15,2013-01-10 19:36:00,
2013-01-10 11:41:00,57.6,35.8,29.85,SW,229,0.0,0.0,44,0.00,,,0.00,Wunderground v.1.15,2013-01-10 19:41:00,
2013-01-10 11:46:00,58.0,37.3,29.85,SW,225,0.0,0.0,46,0.00,,,0.00,Wunderground v.1.15,2013-01-10 19:46:00,
2013-01-10 11:51:00,57.8,33.0,29.85,WSW,254,1.0,2.0,39,0.00,,,0.00,Wunderground v.1.15,2013-01-10 19:51:00,
2013-01-10 11:56:00,57.8,32.3,29.85,WSW,254,1.0,2.0,38,0.00,,,0.00,Wunderground v.1.15,2013-01-10 19:56:00,
2013-01-10 12:01:00,58.1,33.9,29.84,WSW,254,0.0,1.0,40,0.00,,,0.00,Wunderground v.1.15,2013-01-10 20:01:00,
2013-01-10 12:06:00,58.7,31.1,29.84,West,274,1.0,6.0,35,0.00,,,0.00,Wunderground v.1.15,2013-01-10 20:06:00,
2013-01-10 12:12:00,58.9,30.6,29.84,SSW,206,2.0,2.0,34,0.00,,,0.00,Wunderground v.1.15,2013-01-10 20:12:00,
2013-01-10 12:17:00,59.5,30.3,29.84,WNW,286,1.0,2.0,33,0.00,,,0.00,Wunderground v.1.15,2013-01-10 20:17:00,
2013-01-10 12:22:00,59.8,32.1,29.84,NW,310,1.0,3.0,35,0.00,,,0.00,Wunderground v.1.15,2013-01-10 20:22:00,
2013-01-10 12:28:00,59.6,29.7,29.83,WNW,303,2.0,9.0,32,0.00,,,0.00,Wunderground v.1.15,2013-01-10 20:28:00,
2013-01-10 12:33:00,59.6,28.1,29.83,West,276,4.0,6.0,30,0.00,,,0.00,Wunderground v.1.15,2013-01-10 20:33:00,
2013-01-10 12:38:00,59.8,29.1,29.83,West,269,4.0,9.0,31,0.00,,,0.00,Wunderground v.1.15,2013-01-10 20:38:00,
2013-01-10 12:43:00,60.4,28.8,29.83,WNW,298,4.0,9.0,30,0.00,,,0.00,Wunderground v.1.15,2013-01-10 20:43:00,
2013-01-10 12:49:00,60.6,29.0,29.83,West,269,4.0,4.0,30,0.00,,,0.00,Wunderground v.1.15,2013-01-10 20:49:00,
2013-01-10 12:54:00,60.5,27.2,29.83,WNW,283,5.0,12.0,28,0.00,,,0.00,Wunderground v.1.15,2013-01-10 20:54:00,
2013-01-10 12:59:00,60.2,26.1,29.84,WNW,294,5.0,5.0,27,0.00,,,0.00,Wunderground v.1.15,2013-01-10 20:59:00,
2013-01-10 13:04:00,60.0,25.9,29.83,WNW,298,6.0,12.0,27,0.00,,,0.00,Wunderground v.1.15,2013-01-10 21:04:00,
2013-01-10 13:09:00,59.7,24.7,29.84,West,277,7.0,8.0,26,0.00,,,0.00,Wunderground v.1.15,2013-01-10 21:09:00,
2013-01-10 13:14:00,59.5,25.5,29.83,SW,232,6.0,8.0,27,0.00,,,0.00,Wunderground v.1.15,2013-01-10 21:14:00,
2013-01-10 13:21:00,59.4,24.5,29.84,West,272,6.0,6.0,26,0.00,,,0.00,Wunderground v.1.15,2013-01-10 21:21:00,
2013-01-10 13:26:00,59.4,26.2,29.84,West,273,7.0,9.0,28,0.00,,,0.00,Wunderground v.1.15,2013-01-10 21:26:00,
2013-01-10 13:31:00,59.0,25.9,29.84,WNW,294,8.0,8.0,28,0.00,,,0.00,Wunderground v.1.15,2013-01-10 21:31:00,
2013-01-10 13:36:00,58.8,25.7,29.84,WSW,256,8.0,10.0,28,0.00,,,0.00,Wunderground v.1.15,2013-01-10 21:36:00,
2013-01-10 13:41:00,59.0,25.9,29.84,WNW,288,6.0,10.0,28,0.00,,,0.00,Wunderground v.1.15,2013-01-10 21:41:00,
2013-01-10 13:46:00,59.1,26.0,29.84,WNW,285,7.0,14.0,28,0.00,,,0.00,Wunderground v.1.15,2013-01-10 21:46:00,
2013-01-10 13:51:00,58.5,25.5,29.84,WNW,303,9.0,16.0,28,0.00,,,0.00,Wunderground v.1.15,2013-01-10 21:51:00,
2013-01-10 13:56:00,58.4,26.2,29.84,West,273,8.0,16.0,29,0.00,,,0.00,Wunderground v.1.15,2013-01-10 21:56:00,
2013-01-10 14:01:00,58.4,25.4,29.84,WNW,290,8.0,9.0,28,0.00,,,0.00,Wunderground v.1.15,2013-01-10 22:01:00,
2013-01-10 14:07:00,58.2,25.2,29.84,SW,229,8.0,11.0,28,0.00,,,0.00,Wunderground v.1.15,2013-01-10 22:07:00,
2013-01-10 14:12:00,57.9,25.0,29.85,WNW,290,7.0,20.0,28,0.00,,,0.00,Wunderground v.1.15,2013-01-10 22:12:00,
2013-01-10 14:18:00,57.8,24.9,29.85,WNW,300,8.0,20.0,28,0.00,,,0.00,Wunderground v.1.15,2013-01-10 22:18:00,
2013-01-10 14:23:00,57.9,25.8,29.85,NW,315,7.0,12.0,29,0.00,,,0.00,Wunderground v.1.15,2013-01-10 22:23:00,
2013-01-10 14:28:00,58.0,25.9,29.85,WSW,238,6.0,12.0,29,0.00,,,0.00,Wunderground v.1.15,2013-01-10 22:28:00,
2013-01-10 14:33:00,57.8,26.5,29.85,NW,305,6.0,11.0,30,0.00,,,0.00,Wunderground v.1.15,2013-01-10 22:33:00,
2013-01-10 14:38:00,57.7,26.4,29.86,WNW,285,8.0,12.0,30,0.00,,,0.00,Wunderground v.1.15,2013-01-10 22:38:00,
2013-01-10 14:43:00,57.7,25.6,29.86,NW,306,7.0,8.0,29,0.00,,,0.00,Wunderground v.1.15,2013-01-10 22:43:00,
2013-01-10 14:48:00,57.7,26.4,29.86,West,273,6.0,10.0,30,0.00,,,0.00,Wunderground v.1.15,2013-01-10 22:48:00,
2013-01-10 14:53:00,57.6,26.4,29.86,NW,304,5.0,10.0,30,0.00,,,0.00,Wunderground v.1.15,2013-01-10 22:53:00,
2013-01-10 14:58:00,57.6,25.5,29.86,SW,234,5.0,11.0,29,0.00,,,0.00,Wunderground v.1.15,2013-01-10 22:58:00,
2013-01-10 15:03:00,57.5,26.3,29.86,WNW,302,5.0,6.0,30,0.00,,,0.00,Wunderground v.1.15,2013-01-10 23:03:00,
2013-01-10 15:08:00,57.6,25.5,29.86,West,271,5.0,8.0,29,0.00,,,0.00,Wunderground v.1.15,2013-01-10 23:08:00,
2013-01-10 15:13:00,57.5,25.5,29.86,West,280,5.0,6.0,29,0.00,,,0.00,Wunderground v.1.15,2013-01-10 23:13:00,
2013-01-10 15:18:00,57.4,25.4,29.86,NW,309,4.0,6.0,29,0.00,,,0.00,Wunderground v.1.15,2013-01-10 23:18:00,
2013-01-10 15:24:00,57.2,26.0,29.87,NW,315,2.0,9.0,30,0.00,,,0.00,Wunderground v.1.15,2013-01-10 23:24:00,
2013-01-10 15:29:00,56.7,24.8,29.87,NNW,334,3.0,6.0,29,0.00,,,0.00,Wunderground v.1.15,2013-01-10 23:29:00,
2013-01-10 15:34:00,56.2,25.9,29.86,WNW,292,3.0,6.0,31,0.00,,,0.00,Wunderground v.1.15,2013-01-10 23:34:00,
2013-01-10 15:39:00,55.9,25.7,29.86,West,275,3.0,7.0,31,0.00,,,0.00,Wunderground v.1.15,2013-01-10 23:39:00,
2013-01-10 15:45:00,55.3,25.1,29.87,West,265,5.0,11.0,31,0.00,,,0.00,Wunderground v.1.15,2013-01-10 23:45:00,
2013-01-10 15:51:00,54.7,24.6,29.86,WNW,294,5.0,5.0,31,0.00,,,0.00,Wunderground v.1.15,2013-01-10 23:51:00,
2013-01-10 15:56:00,54.5,24.4,29.87,West,271,6.0,18.0,31,0.00,,,0.00,Wunderground v.1.15,2013-01-10 23:56:00,
2013-01-10 16:01:00,54.8,23.9,29.86,WSW,242,7.0,8.0,30,0.00,,,0.00,Wunderground v.1.15,2013-01-11 00:01:00,
2013-01-10 16:06:00,54.9,24.0,29.87,NW,304,7.0,8.0,30,0.00,,,0.00,Wunderground v.1.15,2013-01-11 00:06:00,
2013-01-10 16:12:00,54.7,24.6,29.86,NW,309,5.0,6.0,31,0.00,,,0.00,Wunderground v.1.15,2013-01-11 00:12:00,
2013-01-10 16:17:00,54.5,25.2,29.87,WNW,288,4.0,6.0,32,0.00,,,0.00,Wunderground v.1.15,2013-01-11 00:17:00,
2013-01-10 16:22:00,54.4,26.6,29.87,NW,311,2.0,4.0,34,0.00,,,0.00,Wunderground v.1.15,2013-01-11 00:22:00,
2013-01-10 16:28:00,54.2,24.9,29.86,WSW,256,1.0,5.0,32,0.00,,,0.00,Wunderground v.1.15,2013-01-11 00:28:00,
2013-01-10 16:33:00,54.1,24.9,29.86,West,281,1.0,9.0,32,0.00,,,0.00,Wunderground v.1.15,2013-01-11 00:33:00,
2013-01-10 16:39:00,53.8,24.6,29.87,WNW,285,3.0,4.0,32,0.00,,,0.00,Wunderground v.1.15,2013-01-11 00:39:00,
2013-01-10 16:44:00,53.5,25.1,29.87,West,275,4.0,10.0,33,0.00,,,0.00,Wunderground v.1.15,2013-01-11 00:44:00,
2013-01-10 16:50:00,53.2,24.8,29.87,NW,307,2.0,3.0,33,0.00,,,0.00,Wunderground v.1.15,2013-01-11 00:50:00,
2013-01-10 16:55:00,52.9,24.5,29.87,West,274,2.0,5.0,33,0.00,,,0.00,Wunderground v.1.15,2013-01-11 00:55:00,
2013-01-10 17:01:00,52.5,24.9,29.88,WNW,292,1.0,10.0,34,0.00,,,0.00,Wunderground v.1.15,2013-01-11 01:01:00,
2013-01-10 17:06:00,52.2,24.6,29.89,WNW,300,2.0,10.0,34,0.00,,,0.00,Wunderground v.1.15,2013-01-11 01:06:00,
2013-01-10 17:11:00,51.9,24.4,29.88,West,276,3.0,3.0,34,0.00,,,0.00,Wunderground v.1.15,2013-01-11 01:11:00,
2013-01-10 17:16:00,51.6,24.1,29.88,NW,304,2.0,4.0,34,0.00,,,0.00,Wunderground v.1.15,2013-01-11 01:16:00,
2013-01-10 17:23:00,51.3,24.5,29.89,West,275,2.0,4.0,35,0.00,,,0.00,Wunderground v.1.15,2013-01-11 01:23:00,
2013-01-10 17:28:00,51.0,25.0,29.89,West,261,2.0,4.0,36,0.00,,,0.00,Wunderground v.1.15,2013-01-11 01:28:00,
2013-01-10 17:33:00,50.7,24.0,29.89,NNW,327,1.0,4.0,35,0.00,,,0.00,Wunderground v.1.15,2013-01-11 01:33:00,
2013-01-10 17:38:00,50.5,23.8,29.90,West,275,1.0,4.0,35,0.00,,,0.00,Wunderground v.1.15,2013-01-11 01:38:00,
2013-01-10 17:43:00,50.3,24.3,29.90,West,265,1.0,2.0,36,0.00,,,0.00,Wunderground v.1.15,2013-01-11 01:43:00,
2013-01-10 17:48:00,50.1,24.8,29.91,West,265,0.0,2.0,37,0.00,,,0.00,Wunderground v.1.15,2013-01-11 01:48:00,
2013-01-10 17:53:00,49.9,25.3,29.91,West,265,0.0,0.0,38,0.00,,,0.00,Wunderground v.1.15,2013-01-11 01:53:00,
2013-01-10 17:58:00,49.3,26.6,29.91,West,264,0.0,0.0,41,0.00,,,0.00,Wunderground v.1.15,2013-01-11 01:58:00,
2013-01-10 18:03:00,48.7,27.2,29.91,West,265,0.0,0.0,43,0.00,,,0.00,Wunderground v.1.15,2013-01-11 02:03:00,
2013-01-10 18:08:00,48.2,27.3,29.92,West,264,0.0,0.0,44,0.00,,,0.00,Wunderground v.1.15,2013-01-11 02:08:00,
2013-01-10 18:14:00,47.5,28.8,29.92,West,277,0.0,0.0,48,0.00,,,0.00,Wunderground v.1.15,2013-01-11 02:14:00,
2013-01-10 18:19:00,47.1,28.9,29.93,West,277,0.0,2.0,49,0.00,,,0.00,Wunderground v.1.15,2013-01-11 02:19:00,
2013-01-10 18:24:00,46.9,29.2,29.93,NW,317,1.0,3.0,50,0.00,,,0.00,Wunderground v.1.15,2013-01-11 02:24:00,
2013-01-10 18:30:00,46.6,29.4,29.93,NW,317,0.0,0.0,51,0.00,,,0.00,Wunderground v.1.15,2013-01-11 02:30:00,
2013-01-10 18:35:00,46.2,29.1,29.93,NW,317,0.0,0.0,51,0.00,,,0.00,Wunderground v.1.15,2013-01-11 02:35:00,
2013-01-10 18:40:00,45.8,29.6,29.93,NW,317,0.0,0.0,53,0.00,,,0.00,Wunderground v.1.15,2013-01-11 02:40:00,
2013-01-10 18:45:00,45.5,29.3,29.93,NW,317,0.0,0.0,53,0.00,,,0.00,Wunderground v.1.15,2013-01-11 02:45:00,
2013-01-10 18:50:00,45.0,29.3,29.93,NW,317,0.0,0.0,54,0.00,,,0.00,Wunderground v.1.15,2013-01-11 02:50:00,
2013-01-10 18:56:00,44.3,30.0,29.93,NW,317,0.0,0.0,57,0.00,,,0.00,Wunderground v.1.15,2013-01-11 02:56:00,
2013-01-10 19:01:00,43.7,29.5,29.93,NW,317,0.0,0.0,57,0.00,,,0.00,Wunderground v.1.15,2013-01-11 03:01:00,
2013-01-10 19:06:00,43.3,29.9,29.93,NW,317,0.0,0.0,59,0.00,,,0.00,Wunderground v.1.15,2013-01-11 03:06:00,
2013-01-10 19:11:00,42.8,29.9,29.94,NW,317,0.0,0.0,60,0.00,,,0.00,Wunderground v.1.15,2013-01-11 03:11:00,
2013-01-10 19:16:00,42.4,29.9,29.94,NW,317,0.0,0.0,61,0.00,,,0.00,Wunderground v.1.15,2013-01-11 03:16:00,
2013-01-10 19:21:00,42.0,29.9,29.95,NW,317,0.0,0.0,62,0.00,,,0.00,Wunderground v.1.15,2013-01-11 03:21:00,
2013-01-10 19:26:00,41.8,29.7,29.95,NW,317,0.0,0.0,62,0.00,,,0.00,Wunderground v.1.15,2013-01-11 03:26:00,
2013-01-10 19:31:00,41.6,29.5,29.95,NW,317,0.0,0.0,62,0.00,,,0.00,Wunderground v.1.15,2013-01-11 03:31:00,
2013-01-10 19:37:00,41.9,30.2,29.95,NW,317,0.0,0.0,63,0.00,,,0.00,Wunderground v.1.15,2013-01-11 03:37:00,
2013-01-10 19:42:00,42.2,30.5,29.95,NW,317,0.0,0.0,63,0.00,,,0.00,Wunderground v.1.15,2013-01-11 03:42:00,
2013-01-10 19:47:00,42.2,30.5,29.96,NW,317,0.0,0.0,63,0.00,,,0.00,Wunderground v.1.15,2013-01-11 03:47:00,
2013-01-10 19:52:00,42.0,30.3,29.96,NW,317,0.0,0.0,63,0.00,,,0.00,Wunderground v.1.15,2013-01-11 03:52:00,
2013-01-10 19:58:00,41.8,30.1,29.96,NW,317,0.0,0.0,63,0.00,,,0.00,Wunderground v.1.15,2013-01-11 03:58:00,
2013-01-10 20:03:00,41.6,30.3,29.97,NW,317,0.0,0.0,64,0.00,,,0.00,Wunderground v.1.15,2013-01-11 04:03:00,
2013-01-10 20:08:00,41.3,30.4,29.97,NW,317,0.0,0.0,65,0.00,,,0.00,Wunderground v.1.15,2013-01-11 04:08:00,
2013-01-10 20:13:00,41.0,30.5,29.97,NW,317,0.0,0.0,66,0.00,,,0.00,Wunderground v.1.15,2013-01-11 04:13:00,
2013-01-10 20:18:00,40.8,30.7,29.97,NW,317,0.0,0.0,67,0.00,,,0.00,Wunderground v.1.15,2013-01-11 04:18:00,
2013-01-10 20:23:00,40.5,30.8,29.97,NW,317,0.0,1.0,68,0.00,,,0.00,Wunderground v.1.15,2013-01-11 04:23:00,
2013-01-10 20:28:00,40.2,30.5,29.98,NW,317,0.0,1.0,68,0.00,,,0.00,Wunderground v.1.15,2013-01-11 04:28:00,
2013-01-10 20:34:00,39.9,30.2,29.97,NW,317,0.0,0.0,68,0.00,,,0.00,Wunderground v.1.15,2013-01-11 04:34:00,
2013-01-10 20:39:00,39.7,30.4,29.97,NW,317,0.0,0.0,69,0.00,,,0.00,Wunderground v.1.15,2013-01-11 04:39:00,
2013-01-10 20:44:00,39.5,30.2,29.98,NW,317,0.0,0.0,69,0.00,,,0.00,Wunderground v.1.15,2013-01-11 04:44:00,
2013-01-10 20:49:00,39.2,30.2,29.98,NW,317,0.0,0.0,70,0.00,,,0.00,Wunderground v.1.15,2013-01-11 04:49:00,
2013-01-10 20:55:00,39.0,30.4,29.99,NW,317,0.0,0.0,71,0.00,,,0.00,Wunderground v.1.15,2013-01-11 04:55:00,
2013-01-10 21:03:00,38.7,30.1,29.99,NW,317,0.0,0.0,71,0.00,,,0.00,Wunderground v.1.15,2013-01-11 05:03:00,
2013-01-10 21:04:00,38.7,30.1,29.99,NW,317,0.0,0.0,71,0.00,,,0.00,Wunderground v.1.15,2013-01-11 05:04:00,
2013-01-10 21:05:00,38.6,30.4,29.99,NW,317,0.0,0.0,72,0.00,,,0.00,Wunderground v.1.15,2013-01-11 05:05:00,
2013-01-10 21:08:00,38.4,30.2,29.99,NW,317,0.0,0.0,72,0.00,,,0.00,Wunderground v.1.15,2013-01-11 05:08:00,
2013-01-10 21:13:00,38.2,30.0,29.99,NW,317,0.0,0.0,72,0.00,,,0.00,Wunderground v.1.15,2013-01-11 05:13:00,
2013-01-10 21:18:00,38.1,30.2,30.00,NW,317,0.0,0.0,73,0.00,,,0.00,Wunderground v.1.15,2013-01-11 05:18:00,
2013-01-10 21:23:00,37.9,30.0,30.00,NW,317,0.0,0.0,73,0.00,,,0.00,Wunderground v.1.15,2013-01-11 05:23:00,
2013-01-10 21:28:00,37.8,30.3,30.01,NW,317,0.0,0.0,74,0.00,,,0.00,Wunderground v.1.15,2013-01-11 05:28:00,
2013-01-10 21:33:00,37.7,30.2,30.01,NW,317,0.0,0.0,74,0.00,,,0.00,Wunderground v.1.15,2013-01-11 05:33:00,
2013-01-10 21:38:00,37.7,30.5,30.01,SW,230,0.0,0.0,75,0.00,,,0.00,Wunderground v.1.15,2013-01-11 05:38:00,
2013-01-10 21:43:00,38.2,30.6,30.01,WSW,246,0.0,0.0,74,0.00,,,0.00,Wunderground v.1.15,2013-01-11 05:43:00,
2013-01-10 21:48:00,39.5,31.2,30.00,West,261,0.0,3.0,72,0.00,,,0.00,Wunderground v.1.15,2013-01-11 05:48:00,
2013-01-10 21:53:00,40.2,30.8,30.00,West,261,0.0,1.0,69,0.00,,,0.00,Wunderground v.1.15,2013-01-11 05:53:00,
2013-01-10 21:59:00,40.9,31.1,30.00,West,260,0.0,1.0,68,0.00,,,0.00,Wunderground v.1.15,2013-01-11 05:59:00,
2013-01-10 22:04:00,41.2,31.1,30.00,WSW,246,1.0,4.0,67,0.00,,,0.00,Wunderground v.1.15,2013-01-11 06:04:00,
2013-01-10 22:09:00,41.1,31.0,30.01,WSW,245,1.0,1.0,67,0.00,,,0.00,Wunderground v.1.15,2013-01-11 06:09:00,
2013-01-10 22:14:00,40.9,30.8,30.01,WSW,246,0.0,1.0,67,0.00,,,0.00,Wunderground v.1.15,2013-01-11 06:14:00,
2013-01-10 22:19:00,40.4,30.7,30.01,WSW,246,0.0,0.0,68,0.00,,,0.00,Wunderground v.1.15,2013-01-11 06:19:00,
2013-01-10 22:24:00,40.0,30.6,30.01,ESE,117,0.0,0.0,69,0.00,,,0.00,Wunderground v.1.15,2013-01-11 06:24:00,
2013-01-10 22:29:00,39.9,30.5,30.01,ESE,117,0.0,0.0,69,0.00,,,0.00,Wunderground v.1.15,2013-01-11 06:29:00,
2013-01-10 22:34:00,39.7,30.4,30.02,ESE,117,0.0,0.0,69,0.00,,,0.00,Wunderground v.1.15,2013-01-11 06:34:00,
2013-01-10 22:40:00,39.4,30.1,30.01,ESE,117,0.0,0.0,69,0.00,,,0.00,Wunderground v.1.15,2013-01-11 06:40:00,
2013-01-10 22:45:00,39.2,30.2,30.02,ESE,117,0.0,0.0,70,0.00,,,0.00,Wunderground v.1.15,2013-01-11 06:45:00,
2013-01-10 22:50:00,38.8,30.2,30.02,ESE,117,0.0,0.0,71,0.00,,,0.00,Wunderground v.1.15,2013-01-11 06:50:00,
2013-01-10 22:55:00,38.4,29.8,30.02,ESE,117,0.0,0.0,71,0.00,,,0.00,Wunderground v.1.15,2013-01-11 06:55:00,
2013-01-10 23:00:00,38.0,29.8,30.02,ESE,117,0.0,0.0,72,0.00,,,0.00,Wunderground v.1.15,2013-01-11 07:00:00,
2013-01-10 23:05:00,37.6,29.7,30.02,ESE,117,0.0,1.0,73,0.00,,,0.00,Wunderground v.1.15,2013-01-11 07:05:00,
2013-01-10 23:10:00,37.2,29.7,30.02,ESE,117,0.0,0.0,74,0.00,,,0.00,Wunderground v.1.15,2013-01-11 07:10:00,
2013-01-10 23:15:00,37.0,29.8,30.02,ESE,117,0.0,0.0,75,0.00,,,0.00,Wunderground v.1.15,2013-01-11 07:15:00,
2013-01-10 23:20:00,36.9,29.7,30.01,ESE,117,0.0,0.0,75,0.00,,,0.00,Wunderground v.1.15,2013-01-11 07:20:00,
2013-01-10 23:25:00,36.8,29.9,30.02,ESE,117,0.0,0.0,76,0.00,,,0.00,Wunderground v.1.15,2013-01-11 07:25:00,
2013-01-10 23:30:00,36.8,29.9,30.02,ESE,117,0.0,0.0,76,0.00,,,0.00,Wunderground v.1.15,2013-01-11 07:30:00,
2013-01-10 23:35:00,36.6,29.7,30.02,ESE,117,0.0,0.0,76,0.00,,,0.00,Wunderground v.1.15,2013-01-11 07:35:00,
2013-01-10 23:40:00,36.5,29.7,30.02,ESE,117,0.0,0.0,76,0.00,,,0.00,Wunderground v.1.15,2013-01-11 07:40:00,
2013-01-10 23:46:00,36.3,29.5,30.02,ESE,117,0.0,0.0,76,0.00,,,0.00,Wunderground v.1.15,2013-01-11 07:46:00,
2013-01-10 23:51:00,36.1,29.6,30.03,ESE,117,0.0,0.0,77,0.00,,,0.00,Wunderground v.1.15,2013-01-11 07:51:00,
2013-01-10 23:56:00,35.8,29.3,30.03,ESE,117,0.0,0.0,77,0.00,,,0.00,Wunderground v.1.15,2013-01-11 07:56:00,